Regional Weather Roundup
Issued by NWS

Home | Current Version | Previous Version | Graphics & Text | Print | Product List | Glossary On
Versions: 1 2 3 4 5 6 7 8 9 10 11 12 13 14 15 16 17 18 19 20 21 22 23 24 25 26 27 28 29 30 31 32 33 34 35 36 37 38 39 40 41 42 43 44 45 46 47 48 49 50
000
ASUS45 KBOU 282107
RWRCO

WEATHER ROUNDUP FOR COLORADO
NATIONAL WEATHER SERVICE DENVER/BOULDER CO
300 PM MDT FRI AUG 28 2015

NOTE: "FAIR" INDICATES FEW OR NO CLOUDS BELOW 12000 FEET WITH NO
SIGNIFICANT WEATHER AND/OR OBSTRUCTIONS TO VISIBILITY.

COZ001>005-013-030-031-282200-
...NORTHWEST COLORADO...

CITY           SKY/WX    TMP DP  RH WIND       PRES   REMARKS
CRAIG          SUNNY     81  40  23 E6        30.30F
HAYDEN         NOT AVBL
MEEKER         MOSUNNY   80  43  26 VRB6      30.31F
MOUNT WERNER   NOT AVBL
STEAMBOAT SPGS SUNNY     74  46  36 SE6       30.35F
WALDEN         MOSUNNY   68  41  37 NW5       30.42F
$$

COZ006>008-011-282200-
...WEST CENTRAL VALLEYS...

CITY           SKY/WX    TMP DP  RH WIND       PRES   REMARKS
GRAND JUNCTION SUNNY     85  45  24 SW8       30.19F
MONTROSE       SUNNY     83  45  26 NW12      30.28F
EAGLE          MOSUNNY   79  43  27 VRB7      30.34F
RIFLE          SUNNY     82  42  24 VRB7      30.24F
DELTA          SUNNY     84  50  30 W6        30.23F
NUCLA          SUNNY     82  30  15 CALM      30.29S
$$

COZ017>023-064>068-282200-
...SOUTHWEST COLORADO...

CITY           SKY/WX    TMP DP  RH WIND       PRES   REMARKS
DURANGO        SUNNY     83  33  16 SW7       30.26F
CORTEZ         SUNNY     87  39  18 NW16G25   30.21F
PAGOSA SPRINGS SUNNY     80  28  14 W9        30.33F
TELLURIDE      SUNNY     71  35  27 CALM      30.49F
WOLF CREEK PAS PTSUNNY   55  30  38 NE7       30.69F
$$

COZ009-010-012-014-032>034-037-058>063-282200-
...CENTRAL COLORADO...

CITY           SKY/WX    TMP DP  RH WIND       PRES   REMARKS
ASPEN          CLOUDY    73  40  30 N6        30.40F
BUENA VISTA    NOT AVBL
COPPER MTN     MOSUNNY   59  36  41 W21G29    30.69F
BERTHOUD PASS  PTSUNNY   46  34  61 N6G21     30.74S
COTTONWOOD PAS PTSUNNY   68  27  21 CALM      30.52F
GUNNISON       SUNNY     73  39  29 SW5       30.39F
KREMMLING      SUNNY     73  36  25 CALM      30.39F
LEADVILLE      MOSUNNY   66  32  28 VRB7      30.53F
SALIDA         MOSUNNY   81  31  16 SE7       30.39F
SUNLIGHT       PTSUNNY   57  43  58 CALM      30.66S
WILKERSON PASS MOSUNNY   55  36  47 E5        30.66F
$$

COZ069>075-282200-
...SAN LUIS VALLEY/SANGRE DE CRISTO MOUNTAINS...

CITY           SKY/WX    TMP DP  RH WIND       PRES   REMARKS
ALAMOSA        SUNNY     79  29  16 CALM      30.32F
LA VETA PASS   MOSUNNY   64  39  39 NE14G23   30.54F
SAGUACHE       NOT AVBL
$$

COZ035-036-038>040-282200-
...NORTHERN COLORADO FRONT RANGE...

CITY           SKY/WX    TMP DP  RH WIND       PRES   REMARKS
DENVER INTL AP MOSUNNY   83  41  22 NW10G22   30.22F
DMNS CITY PARK   N/A     83  41  22 N14G20    30.20F
AURORA         MOSUNNY   83  43  24 N10       30.24F
FRONT RANGE AP MOSUNNY   84  39  20 NW14G21   30.23F
ERIE MUNI ARPT MOSUNNY   85  40  20 N14G20    30.20F
BOULDER MUN AP MOSUNNY   82  43  24 N3        30.20F
CENTENNIAL     PTSUNNY   80  43  26 N8G23     30.25F
BROOMFIELD     PTSUNNY   82  41  23 NW5       30.24F
FORT COLLINS   MOSUNNY   84  45  24 N10G18    30.18F
LONGMONT       MOSUNNY   88  42  20 NW6       30.21S
$$

COZ041-046-047-076>085-087-088-282200-
...PIKES PEAK/PALMER DIVIDE AND SOUTHERN FOOTHILLS...

CITY           SKY/WX    TMP DP  RH WIND       PRES   REMARKS
COLO. SPRINGS  MOSUNNY   82  40  22 N13G18    30.26F
A. F. ACADEMY  MOSUNNY   78  42  27 NE13G21   30.28F
ELLICOTT       MOSUNNY  N/A N/A N/A N10G17    30.25F
FALCON         SUNNY     77  41  27 MISG      30.33S
FORT CARSON    MOSUNNY   83  46  27 NE9       30.23F
LIMON          SUNNY     81  45  28 N16G24    30.21F
MONUMENT HILL  SUNNY     73  37  27 N14       30.34S
TRINIDAD       PTSUNNY   83  45  26 N8        30.23S
$$

COZ042>045-048>051-090-091-282200-
...NORTHEAST COLORADO...

CITY           SKY/WX    TMP DP  RH WIND       PRES   REMARKS
GREELEY ARPT   SUNNY     84  45  24 NE8       30.18F
AKRON          SUNNY     86  38  18 N17G28    30.15S
BURLINGTON     MOSUNNY   87  45  23 N13G22    30.09F
WRAY           SUNNY     93  38  14 N16G22    30.06S
STERLING       SUNNY     90  45  20 N13G18    30.09F
HOLYOKE        SUNNY     95  45  17 N14G25    30.07S
FORT MORGAN    SUNNY     86  40  19 N7G18     30.15S
$$

COZ086-089-092>099-282200-
...SOUTHEAST COLORADO...

CITY           SKY/WX    TMP DP  RH WIND       PRES   REMARKS
PUEBLO         MOSUNNY   91  46  21 MISG      30.15F
LA JUNTA       MOSUNNY   91  48  22 NW13G23   30.12F
LAMAR          PTSUNNY   91  51  25 W10       30.05F
SPRINGFIELD      N/A     88  50  27 N14       30.11F
$$



USA.gov is the U.S. government's official web portal to all federal, state and local government web resources and services.